Regional Weather Roundup
Issued by NWS

Home | Current Version | Previous Version | Graphics & Text | Print | Product List | Glossary On
Versions: 1 2 3 4 5 6 7 8 9 10 11 12 13 14 15 16 17 18 19 20 21 22 23 24 25 26 27 28 29 30 31 32 33 34 35 36 37 38 39 40 41 42 43 44 45 46 47 48 49 50
000
ASUS43 KOAX 041102
RWRNE

WEATHER ROUNDUP FOR NEBRASKA
NATIONAL WEATHER SERVICE OMAHA NE
600 AM CDT WED MAY 04 2016

NOTES: SATELLITE DATA IS BEING USED TO AUGMENT CLOUD COVER ABOVE
       12000 FEET.
       "FAIR" INDICATES FEW OR NO CLOUDS BELOW 12,000 FEET WITH NO
       SIGNIFICANT WEATHER AND/OR OBSTRUCTIONS TO VISIBILITY.

  * THESE STATIONS DO NOT REPORT WEATHER SUCH AS RAIN...SNOW OR FOG.

NEZ001>004-019>022-054>056-041200-
NEBRASKA PANHANDLE

CITY           SKY/WX    TMP DP  RH WIND       PRES   REMARKS
SCOTTSBLUFF    CLEAR     43  38  82 NW10      30.18S
ALLIANCE       CLEAR     36  34  92 W7        30.15S WCI  30
CHADRON        CLEAR     40  36  86 SW6       30.15S
KIMBALL        CLEAR     39  36  89 W7        30.21S WCI  34
SIDNEY         CLEAR     37  34  89 NW9       30.19R WCI  30
$$

NEZ057>060-069>072-079>082-041200-
SOUTHWEST NEBRASKA

CITY           SKY/WX    TMP DP  RH WIND       PRES   REMARKS
NORTH PLATTE   CLEAR     40  37  89 W5        30.11S
IMPERIAL       CLEAR     46  38  73 W9        30.13S
LEXINGTON      CLEAR     43  39  87 W9        30.08R
MCCOOK         CLEAR     42  37  82 NW7       30.10R
$$

NEZ005>010-023>029-035>040-094-041200-
NORTH CENTRAL NEBRASKA

CITY           SKY/WX    TMP DP  RH WIND       PRES   REMARKS
VALENTINE      CLEAR     40  35  83 NW3       30.12R
AINSWORTH      CLEAR     43  37  79 NW5       30.10S
BROKEN BOW     CLEAR     44  39  82 N9        30.08R
ORD            CLEAR     42  39  89 NW8       30.06R
$$

NEZ041-046>049-061>064-073>077-083>087-041200-
SOUTH CENTRAL NEBRASKA

CITY           SKY/WX    TMP DP  RH WIND       PRES   REMARKS
GRAND ISLAND   CLEAR     48  39  71 N12       30.04R
AURORA         CLEAR     46  40  82 N10       30.03R
HASTINGS       CLEAR     47  40  76 N8        30.03R
KEARNEY *      CLEAR     46  39  76 NW6       30.06R
YORK           CLEAR     46  39  76 NW10      30.01S
$$

NEZ011>018-030>034-042>045-041200-
NORTHEAST NEBRASKA

CITY           SKY/WX    TMP DP  RH WIND       PRES   REMARKS
NORFOLK        CLEAR     45  34  65 NW9       30.01R
ALBION         CLEAR     38  33  82 NW7       30.04S WCI  33
BLAIR          CLEAR     50  34  54 N13       29.95R
COLUMBUS *     CLEAR     43  30  61 NW9       30.02R
FREMONT        CLEAR     44  37  75 NW10      29.98R
TEKAMAH        CLEAR     45  36  70 N9        29.97R
$$

NEZ050>053-065>068-078-088>093-041200-
SOUTHEAST NEBRASKA

CITY           SKY/WX    TMP DP  RH WIND       PRES   REMARKS
LINCOLN        CLEAR     51  38  60 NW7       29.99R
OMAHA EPPLEY   CLEAR     48  37  65 N9        29.94R
BEATRICE       CLEAR     46  40  78 NW6       29.97R
FALLS CITY     CLEAR     49  41  74 NW9       29.91R
$$

NEZ044-045-051>053-067-041200-
OMAHA AREA

CITY           SKY/WX    TMP DP  RH WIND       PRES   REMARKS
OMAHA EPPLEY   CLEAR     48  37  65 N9        29.94R
BLAIR          CLEAR     50  34  54 N13       29.95R
FREMONT        CLEAR     44  37  75 NW10      29.98R
$$




USA.gov is the U.S. government's official web portal to all federal, state and local government web resources and services.